EW4281 Weather Reports


time (UTC)temp
F
wind
direction
speed
knots
gust
knots
rain 1hr
in
rain 24hr
in
rain mn
in
humidity
%
barometer
mb
20260505183544 61 221 2.6 9.6 0.00 0.00 0.00 35 997.6
20260505182548 61 206 2.6 7.8 0.00 0.00 0.00 34 997.8
20260505181544 62 239 0.9 7.8 0.00 0.00 0.00 33 997.6
20260505180605 62 184 2.6 7.8 0.00 0.00 0.00 33 997.7
20260505175600 61 224 1.7 7.8 0.00 0.00 0.00 33 997.7
20260505174558 63 229 0.9 7.8 0.00 0.00 0.00 32 998.2
20260505173614 63 239 0.9 5.2 0.00 0.00 0.00 34 998.4
20260505172611 59 184 0.9 5.2 0.00 0.00 0.00 35 998.2
20260505171624 58 261 0.9 4.3 0.00 0.00 0.00 37 998.5
20260505170612 57 158 0.0 3.5 0.00 0.00 0.00 39 998.5
20260505165538 56 265 0.9 4.3 0.00 0.00 0.00 40 998.8
20260505164542 55 170 1.7 5.2 0.00 0.00 0.00 41 999.0
20260505162440 55 190 0.0 2.6 0.00 0.00 0.00 40 999.0
20260505161426 54 220 0.0 3.5 0.00 0.00 0.00 41 999.1
20260505152002 53 285 0.0 1.7 0.00 0.00 0.00 45 999.2
20260505150948 53 197 0.0 4.3 0.00 0.00 0.00 45 999.1
20260505113611 49 195 0.0 0.0 0.00 0.00 0.00 41 999.8
20260505112632 49 132 0.0 1.7 0.00 0.00 0.00 42 999.7
20260505102109 50 233 0.0 0.0 0.00 0.00 0.00 41 999.1
20260505101118 50 233 0.0 0.0 0.00 0.00 0.00 40 999.0
20260505094948 51 193 0.0 0.0 0.00 0.00 0.00 39 999.0
20260505093925 51 226 0.0 0.0 0.00 0.00 0.00 38 999.0
20260505091808 52 296 0.0 0.0 0.00 0.00 0.00 37 999.0
20260505090826 52 296 0.0 0.0 0.00 0.00 0.00 36 999.1
20260505085835 52 295 0.0 0.0 0.00 0.00 0.00 35 999.1
20260505084853 53 271 0.0 0.0 0.00 0.00 0.00 35 999.4
20260505083859 53 198 0.0 0.0 0.00 0.00 0.00 34 999.4
20260505082907 53 281 0.0 0.0 0.00 0.00 0.00 34 999.8
20260505081912 54 289 0.0 1.7 0.00 0.00 0.00 33 1000.1
20260505080855 54 211 0.0 5.2 0.00 0.00 0.00 33 1000.0
20260505074723 55 289 0.0 4.3 0.00 0.00 0.00 32 1000.1
20260505073728 55 280 0.9 4.3 0.00 0.00 0.00 31 999.8
20260505071545 56 285 1.7 7.8 0.00 0.00 0.00 31 999.5
20260505070513 56 307 0.9 4.3 0.00 0.00 0.00 30 999.8
20260505065528 57 266 0.9 3.5 0.00 0.00 0.00 30 999.9
20260505064533 57 303 0.0 3.5 0.00 0.00 0.00 31 999.7
20260505063533 57 276 0.0 3.5 0.00 0.00 0.00 31 999.8
20260505061435 57 237 0.0 7.0 0.00 0.00 0.00 31 999.7
20260505060406 57 278 0.0 7.0 0.00 0.00 0.00 31 999.8
20260505055424 57 279 0.0 1.7 0.00 0.00 0.00 32 1000.0
20260505054412 57 224 0.0 1.7 0.00 0.00 0.00 32 999.7
20260505053419 57 219 0.0 0.0 0.00 0.00 0.00 32 999.6
20260505052404 57 225 0.0 0.9 0.00 0.00 0.00 32 999.6
20260505051429 57 131 0.0 0.9 0.00 0.00 0.00 32 999.6
20260505050402 58 42 0.0 1.7 0.00 0.00 0.00 31 999.6
20260505041202 59 273 0.0 2.6 0.00 0.00 0.00 29 999.8
20260505035027 60 284 0.0 3.5 0.00 0.00 0.00 28 1000.0
20260505034044 60 320 0.0 3.5 0.00 0.00 0.00 28 999.9
20260505033052 60 288 0.9 3.5 0.00 0.00 0.00 27 999.9
20260505032047 60 304 0.9 3.5 0.00 0.00 0.00 26 999.7
20260505031032 60 322 0.0 4.3 0.00 0.00 0.00 26 999.4
20260505030055 61 2 0.9 4.3 0.00 0.00 0.00 25 999.3
20260505025038 61 271 0.9 4.3 0.00 0.00 0.00 24 999.1
20260505021643 62 303 0.0 3.5 0.00 0.00 0.00 22 998.6
20260505015448 63 312 1.7 10.4 0.00 0.00 0.00 21 998.6
20260505013251 64 295 1.7 6.1 0.00 0.00 0.00 20 998.2
20260505012256 64 315 1.7 6.1 0.00 0.00 0.00 20 998.1
20260505011254 64 287 0.9 7.8 0.00 0.00 0.00 19 997.9
20260505010318 65 335 1.7 7.8 0.00 0.00 0.00 19 997.9
20260505004209 65 290 1.7 8.7 0.00 0.00 0.00 19 998.2
20260505003223 65 243 2.6 8.7 0.00 0.00 0.00 18 998.3
20260505002241 66 340 1.7 8.7 0.00 0.00 0.00 18 998.2
20260505001209 66 292 1.7 10.4 0.00 0.00 0.00 19 998.1
20260505000227 66 326 2.6 10.4 0.00 0.00 0.00 19 998.3
20260504235211 66 277 1.7 8.7 0.00 0.00 0.00 19 998.4
20260504234147 66 279 1.7 8.7 0.00 0.00 0.00 20 998.5
20260504233132 66 330 1.7 6.1 0.00 0.00 0.00 20 998.5
20260504232137 67 309 1.7 7.8 0.00 0.00 0.00 20 998.5
20260504231147 67 271 3.5 9.6 0.00 0.00 0.00 20 998.5
20260504230115 67 271 2.6 9.6 0.00 0.00 0.00 19 998.7
20260504225127 66 254 1.7 10.4 0.00 0.00 0.00 19 998.8
20260504224058 66 277 2.6 10.4 0.00 0.00 0.00 19 998.8
20260504221919 66 258 2.6 10.4 0.00 0.00 0.00 18 998.9
20260504220926 67 297 3.5 10.4 0.00 0.00 0.00 17 999.0
20260504215912 67 321 3.5 10.4 0.00 0.00 0.00 17 999.2
20260504214917 69 276 1.7 7.0 0.00 0.00 0.00 15 999.3
20260504213936 69 340 1.7 7.0 0.00 0.00 0.00 14 999.2
20260504212932 69 256 3.5 9.6 0.00 0.00 0.00 14 999.3
20260504211933 70 290 2.6 9.6 0.00 0.00 0.00 14 999.3
20260504210942 69 243 1.7 7.8 0.00 0.00 0.00 15 999.6
20260504205922 69 295 1.7 8.7 0.00 0.00 0.00 16 999.8
20260504204941 69 275 2.6 8.7 0.00 0.00 0.00 15 1000.0
20260504203957 70 204 2.6 8.7 0.00 0.00 0.00 17 1000.2
20260504202949 69 203 1.7 7.8 0.00 0.00 0.00 18 1000.1
20260504201919 69 287 2.6 7.8 0.00 0.00 0.00 19 1000.4
20260504200931 70 259 1.7 7.0 0.00 0.00 0.00 19 1000.3
20260504194850 70 271 2.6 9.6 0.00 0.00 0.00 19 1000.5
20260504193833 69 244 1.7 8.7 0.00 0.00 0.00 20 1000.6
20260504192802 70 289 2.6 7.0 0.00 0.00 0.00 18 1000.8
20260504190657 69 277 1.7 9.6 0.00 0.00 0.00 21 1000.8
20260504185710 69 161 1.7 10.4 0.00 0.00 0.00 20 1000.9
20260504184658 67 234 3.5 10.4 0.00 0.00 0.00 23 1001.1